EW7244 Weather Reports


Display with metric or nautical units.
time (UTC)temp
F
wind
direction
speed
MPH
gust
MPH
rain 1hr
in
rain 24hr
in
rain mn
in
humidity
%
barometer
mb
20260502181515 60 236 0.0 0.0 0.00 0.00 0.00 60 1016.5
20260502163105 63 230 0.0 0.0 0.00 0.00 0.00 56 1016.5
20260502161539 64 230 0.0 0.0 0.00 0.00 0.00 53 1016.5
20260502151506 71 99 0.0 0.0 0.00 0.00 0.00 42 1016.9
20260502123052 69 107 0.0 4.0 0.00 0.00 0.00 39 1018.8
20260502121601 68 109 0.0 3.0 0.00 0.00 0.00 40 1019.0
20260502114550 67 217 0.0 0.0 0.00 0.00 0.00 43 1019.5
20260502113054 67 76 0.0 0.0 0.00 0.00 0.00 44 1019.7
20260502111552 66 69 0.0 0.0 0.00 0.00 0.00 43 1020.0
20260502110035 66 91 0.0 1.0 0.00 0.00 0.00 49 1020.2
20260502104521 65 98 0.0 0.0 0.00 0.00 0.00 44 1020.6
20260502103004 64 74 0.0 2.0 0.00 0.00 0.00 50 1020.8
20260502101554 63 90 0.0 0.0 0.00 0.00 0.00 50 1021.1
20260502070052 52 113 0.0 3.0 0.00 0.00 0.00 66 1023.6
20260502064557 51 92 0.0 0.0 0.00 0.00 0.00 70 1023.7
20260502063052 50 126 0.0 0.0 0.00 0.00 0.00 73 1023.8
20260502061545 50 128 0.0 0.0 0.00 0.00 0.00 71 1023.8
20260502060039 50 263 0.0 0.0 0.00 0.00 0.00 71 1023.9
20260502054535 50 271 0.0 0.0 0.00 0.00 0.00 73 1024.0
20260502053014 49 271 0.0 0.0 0.00 0.00 0.00 73 1024.0
20260502051514 48 271 0.0 0.0 0.00 0.00 0.00 76 1023.9
20260502050055 47 271 0.0 0.0 0.00 0.00 0.00 75 1023.9
20260502044552 45 271 0.0 0.0 0.00 0.00 0.00 78 1023.7
20260502043053 43 271 0.0 0.0 0.00 0.00 0.00 80 1023.8
20260502041545 43 271 0.0 0.0 0.00 0.00 0.00 79 1023.8
20260502040053 44 271 0.0 0.0 0.00 0.00 0.00 76 1023.6
20260502034553 44 271 0.0 0.0 0.00 0.00 0.00 77 1023.5
20260502033049 44 271 0.0 0.0 0.00 0.00 0.00 77 1023.6
20260502031544 44 271 0.0 0.0 0.00 0.00 0.00 76 1023.5
20260502030041 45 271 0.0 0.0 0.00 0.00 0.00 74 1023.6
20260502024557 45 271 0.0 0.0 0.00 0.00 0.00 73 1023.6
20260502023052 45 271 0.0 0.0 0.00 0.00 0.00 73 1023.6
20260502021549 46 271 0.0 0.0 0.00 0.00 0.00 71 1023.6
20260502020044 46 271 0.0 0.0 0.00 0.00 0.00 71 1023.5
20260502014601 46 271 0.0 0.0 0.00 0.00 0.00 71 1023.5
20260502013056 46 271 0.0 0.0 0.00 0.00 0.00 70 1023.5
20260502010043 46 272 0.0 0.0 0.00 0.00 0.00 70 1023.7
20260502004537 47 272 0.0 0.0 0.00 0.00 0.00 69 1023.6
20260502003020 47 271 0.0 1.0 0.00 0.00 0.00 68 1023.6
20260502001518 47 271 0.0 0.0 0.00 0.00 0.00 69 1023.7
20260502000113 47 271 0.0 0.0 0.00 0.00 0.00 69 1023.7
20260501234543 48 271 0.0 0.0 0.00 0.00 0.00 68 1023.6
20260501233101 48 271 0.0 0.0 0.00 0.00 0.00 67 1023.6
20260501231551 48 272 0.0 0.0 0.00 0.00 0.00 67 1023.6
20260501230043 49 273 0.0 0.0 0.00 0.00 0.00 67 1023.6
20260501224540 49 273 0.0 0.0 0.00 0.00 0.00 66 1023.6
20260501223055 49 273 0.0 0.0 0.00 0.00 0.00 66 1023.6
20260501221545 49 273 0.0 0.0 0.00 0.00 0.00 65 1023.3
20260501220047 49 273 0.0 0.0 0.00 0.00 0.00 66 1023.1
20260501214557 50 273 0.0 0.0 0.00 0.00 0.00 61 1023.1
20260501213054 50 279 0.0 0.0 0.00 0.00 0.00 62 1023.0
20260501211553 51 279 0.0 0.0 0.00 0.00 0.00 60 1022.9
20260501210045 51 313 0.0 0.0 0.00 0.00 0.00 61 1022.7
20260501204537 51 332 0.0 0.0 0.00 0.00 0.00 63 1022.6
20260501203057 50 287 0.0 0.0 0.00 0.00 0.00 62 1022.5
20260501201606 51 235 0.0 0.0 0.00 0.00 0.00 63 1022.3
20260501200043 52 236 0.0 0.0 0.00 0.00 0.00 62 1022.2
20260501194554 52 236 0.0 0.0 0.00 0.00 0.00 58 1022.0
20260501193041 52 236 0.0 0.0 0.00 0.00 0.00 59 1021.8
20260501191533 53 238 0.0 0.0 0.00 0.00 0.00 60 1021.6
20260501190018 53 237 0.0 0.0 0.00 0.00 0.00 58 1021.6
20260501184507 53 24 0.0 0.0 0.00 0.00 0.00 63 1021.3
20260501183058 53 265 0.0 0.0 0.00 0.00 0.00 59 1021.1